CZ-6A DEB, 60767

Orbit data source: Space-Track

CZ-6A DEB, 60767 is space debris in LEO originally from a launch on Tue, 06 Aug 2024 UTC launched from the Taiyaun Space Center, China (TSC). Debris objects in space refer to the collection of defunct objects orbiting the Earth. Examples of debris include non-operational satellites, rocket bodies, and fragments generated from explosions, collisions, or faulty payload assembly.

Loading next visibility...
Identifier
60767, 2024-140ES
Orbit
LEO
Country
Flag of CNCN / PRC
Related business
Manufacturer
SAST
Mission
Spacecraft
Bus & Motor
Unknown
Mass
Unknown
Launch date (UTC)
2024-08-06 (2 years ago)
Launch vehicle
Unknown
Launch site
Taiyaun Space Center, China (TSC)
Object type
Payload
Rocket body
Debris
Shape & HBR
Unknown shape, 0.1 m
Radar Cross Section
Medium (>0.1 m² and <1 m²)

Expand to show TLE details & history
Last TLE update: 15 hours ago

TLE from 15 hours ago
0 CZ-6A DEB
1 60767U 24140ES  26171.23294157  .00000770  00000-0  36915-3 0  9998
2 60767  88.9896 273.8906 0061632 183.2712 176.8083 14.17020471 95816
Epoch: 2026-06-20T05:35Z
TLE epoch observation values (Epoch: 2026-06-20T05:35:26.151Z)
Latitude
Longitude
-78.41887°
Altitude
882.896 km
Speed
7.388 km/s
True Right ascension
18h 15m 33s
True Declination
0° 00' 00"
Sunlit
Object was in full shadow at epoch
Visualization orbit readout
Latitude
Unknown
Longitude
Unknown
Altitude
Unknown
Speed
Unknown
Apparent Right ascension
Unknown
Apparent Declination
Unknown
Sunlit
N/A
Visualization observer readout
Local Sidereal Time
07:18:35
Azimuth
Unknown
Elevation
Unknown
Doppler factor
Unknown
Orbital elements
Apogee altitude
876.842 km
Perigee altitude
787.962 km
Semi-major axis
7,210.539 km
Eccentricity
0.00616
Inclination
88.9896°
RAAN
273.8906°
Arg. of periapsis
183.2712°
True anomaly
176.84732°
Mean anomaly
176.8083°
Eccentric anomaly
176.82784°
Mean motion
3.5448 °/min
Orbital period
101.56 mins
BSTAR
0.00036915
Loading maneuver chart data...
Computing Atmospheric mass density...
Loading historical data...
Loading historical data...
Loading historical data...
Loading historical data...
Loading historical data...
Loading historical data...
Loading historical data...

Documentation

Showing up to 5 results
|